Location: Wapato
(46.4478°N, 120.4212°W)
Time: 10:08:05
(UTC+00:00)

Injun/Solrad 3 - Pass Details

Date: 18 May 2026
Orbit: 867 x 989 km, 66.8° (Epoch: 10 June)

Event Time Altitude Azimuth Distance (km) Brightness Sun altitude
Rises 04:12:12 0° 319° (NW) 3,644 13.1 -6.7°
Reaches altitude 10° 04:16:35 10° 348° (NNW) 2,722 11.2 -7.3°
Maximum altitude 04:19:16 13° 13° (NNE) 2,537 10.6 -7.6°
Drops below altitude 10° 04:21:58 10° 38° (NE) 2,743 10.4 -8.0°
Sets 04:26:24 0° 66° (ENE) 3,701 10.8 -8.6°
